KC9UAW Weather Reports


time (UTC)temp
F
wind
direction
speed
knots
gust
knots
rain 1hr
in
rain 24hr
in
rain mn
in
humidity
%
barometer
mb
20260906022504 82 57 0.0 1.7 0.00 0.00 0.00 77 1012.3
20260906021503 82 57 0.0 1.7 0.00 0.00 0.00 74 1012.3
20260906021007 82 59 0.0 0.0 0.00 0.00 0.00 73 1012.2
20260906020504 83 59 0.0 0.0 0.00 0.00 0.00 74 1012.2
20260906015504 83 59 0.0 1.7 0.00 0.00 0.00 73 1011.9
20260906015006 83 59 0.0 1.7 0.00 0.00 0.00 72 1011.9
20260906013503 84 61 0.0 0.0 0.00 0.00 0.00 72 1011.8
20260906013006 85 61 0.0 0.0 0.00 0.00 0.00 72 1011.8
20260906012504 85 61 0.0 0.0 0.00 0.00 0.00 70 1011.8
20260906012007 85 61 0.0 0.0 0.00 0.00 0.00 68 1011.8
20260906011503 86 61 0.0 0.0 0.00 0.00 0.00 67 1011.8
20260906011006 86 61 0.0 0.0 0.00 0.00 0.00 67 1011.5
20260906010503 87 61 0.0 0.9 0.00 0.00 0.00 66 1011.5
20260906010004 87 61 0.0 1.7 0.00 0.00 0.00 66 1011.5
20260906005504 88 61 0.0 1.7 0.00 0.00 0.00 64 1011.4
20260906005006 88 61 1.7 1.7 0.00 0.00 0.00 63 1011.4
20260906004503 89 61 1.7 2.6 0.00 0.00 0.00 63 1011.4
20260906003503 89 61 1.7 4.3 0.00 0.00 0.00 60 1011.4
20260906003007 90 61 1.7 4.3 0.00 0.00 0.00 60 1011.4
20260906002007 90 61 2.6 4.3 0.00 0.00 0.00 58 1011.5
20260906001503 91 61 2.6 4.3 0.00 0.00 0.00 58 1011.5
20260906001007 91 55 4.3 5.2 0.00 0.00 0.00 57 1011.5
20260906000504 91 51 4.3 7.0 0.00 0.00 0.00 56 1011.5
20260906000004 92 51 5.2 8.7 0.00 0.00 0.00 56 1011.5
20260905235503 92 49 5.2 8.7 0.00 0.00 0.00 55 1011.5
20260905234504 93 31 5.2 8.7 0.00 0.00 0.00 53 1011.5
20260905233503 94 49 5.2 10.4 0.00 0.00 0.00 52 1011.4
20260905233006 95 17 2.6 10.4 0.00 0.00 0.00 51 1011.4
20260905232504 95 47 2.6 5.2 0.00 0.00 0.00 49 1011.4
20260905231503 96 45 2.6 6.1 0.00 0.00 0.00 48 1011.4
20260905231007 96 53 4.3 6.1 0.00 0.00 0.00 47 1011.5
20260905230504 96 68 4.3 6.1 0.00 0.00 0.00 49 1011.5
20260905230003 97 36 4.3 6.1 0.00 0.00 0.00 47 1011.5
20260905225503 97 58 4.3 6.1 0.00 0.00 0.00 46 1011.4
20260905225006 97 35 4.3 6.1 0.00 0.00 0.00 46 1011.4
20260905224504 97 26 4.3 6.1 0.00 0.00 0.00 46 1011.4
20260905224007 97 24 4.3 6.1 0.00 0.00 0.00 47 1011.4
20260905223504 97 48 4.3 6.1 0.00 0.00 0.00 46 1011.4
20260905223007 97 28 4.3 6.1 0.00 0.00 0.00 46 1011.4
20260905222503 97 47 4.3 7.0 0.00 0.00 0.00 45 1011.5
20260905221504 98 33 4.3 8.7 0.00 0.00 0.00 44 1011.5
20260905221006 98 47 5.2 8.7 0.00 0.00 0.00 44 1011.4
20260905220503 97 10 6.1 10.4 0.00 0.00 0.00 44 1011.4
20260905220003 97 23 7.0 12.2 0.00 0.00 0.00 44 1011.4
20260905215504 98 42 7.8 13.0 0.00 0.00 0.00 44 1011.1
20260905215006 98 21 7.8 13.0 0.00 0.00 0.00 44 1011.1
20260905214504 98 27 7.8 13.0 0.00 0.00 0.00 42 1011.1
20260905214007 99 50 7.0 14.8 0.00 0.00 0.00 42 1011.2
20260905213504 99 32 7.0 14.8 0.00 0.00 0.00 41 1011.2
20260905213007 100 42 4.3 13.0 0.00 0.00 0.00 40 1011.2
20260905212504 101 16 4.3 13.0 0.00 0.00 0.00 40 1011.3
20260905212006 100 11 4.3 8.7 0.00 0.00 0.00 41 1011.3
20260905211504 100 322 4.3 8.7 0.00 0.00 0.00 40 1011.3
20260905210504 100 310 4.3 7.8 0.00 0.00 0.00 39 1011.4
20260905210004 100 9 5.2 10.4 0.00 0.00 0.00 41 1011.4
20260905205503 100 32 5.2 12.2 0.00 0.00 0.00 40 1011.6
20260905205006 100 19 5.2 12.2 0.00 0.00 0.00 42 1011.6
20260905204007 100 44 5.2 10.4 0.00 0.00 0.00 39 1011.7
20260905203503 101 325 5.2 12.2 0.00 0.00 0.00 41 1011.7
20260905203006 100 313 5.2 12.2 0.00 0.00 0.00 39 1011.7
20260905202504 100 2 5.2 11.3 0.00 0.00 0.00 38 1011.8
20260905202006 100 307 5.2 10.4 0.00 0.00 0.00 40 1011.8
20260905201006 100 311 4.3 10.4 0.00 0.00 0.00 40 1012.0
20260905200004 100 306 5.2 10.4 0.00 0.00 0.00 40 1012.0
20260905195006 100 301 4.3 10.4 0.00 0.00 0.00 41 1012.2
20260905194503 100 315 4.3 11.3 0.00 0.00 0.00 41 1012.2
20260905194006 100 292 5.2 11.3 0.00 0.00 0.00 42 1012.5
20260905193504 100 308 5.2 11.3 0.00 0.00 0.00 41 1012.5
20260905193007 99 288 5.2 11.3 0.00 0.00 0.00 43 1012.5
20260905192504 99 13 5.2 8.7 0.00 0.00 0.00 43 1012.6
20260905191504 99 358 5.2 13.0 0.00 0.00 0.00 43 1012.6
20260905191006 98 38 4.3 13.0 0.00 0.00 0.00 45 1012.8
20260905190503 98 244 4.3 7.8 0.00 0.00 0.00 49 1012.8
20260905190003 99 307 4.3 10.4 0.00 0.00 0.00 43 1012.8
20260905185504 99 243 4.3 12.2 0.00 0.00 0.00 41 1012.9
20260905185006 99 298 5.2 12.2 0.00 0.00 0.00 44 1012.9
20260905184503 99 321 5.2 8.7 0.00 0.00 0.00 45 1012.9
20260905183503 99 20 6.1 11.3 0.00 0.00 0.00 46 1013.0
20260905183007 99 40 5.2 11.3 0.00 0.00 0.00 45 1013.0
20260905182503 99 29 5.2 11.3 0.00 0.00 0.00 47 1013.2
20260905182007 98 320 5.2 12.2 0.00 0.00 0.00 47 1013.2
20260905181503 98 318 5.2 12.2 0.00 0.00 0.00 46 1013.2
20260905181007 98 23 4.3 8.7 0.00 0.00 0.00 46 1013.3
20260905180504 98 4 4.3 7.0 0.00 0.00 0.00 47 1013.3
20260905180004 98 296 5.2 8.7 0.00 0.00 0.00 49 1013.3
20260905175504 97 353 5.2 8.7 0.00 0.00 0.00 49 1013.4
20260905175006 97 6 4.3 10.4 0.00 0.00 0.00 48 1013.4
20260905174503 97 334 4.3 10.4 0.00 0.00 0.00 49 1013.4
20260905174007 97 256 4.3 7.8 0.00 0.00 0.00 52 1013.5
20260905173504 97 266 4.3 7.8 0.00 0.00 0.00 49 1013.5
20260905173006 96 314 2.6 7.0 0.00 0.00 0.00 50 1013.5
20260905172503 96 300 2.6 6.1 0.00 0.00 0.00 50 1013.7
20260905172007 96 281 4.3 6.1 0.00 0.00 0.00 50 1013.7
20260905171504 96 273 4.3 6.1 0.00 0.00 0.00 50 1013.7
20260905171007 96 354 4.3 7.8 0.00 0.00 0.00 52 1014.0
20260905170004 95 309 4.3 7.8 0.00 0.00 0.00 53 1014.0
20260905165503 95 310 4.3 7.0 0.00 0.00 0.00 54 1014.1
20260905165006 95 299 4.3 7.8 0.00 0.00 0.00 54 1014.1
20260905164503 94 332 4.3 7.8 0.00 0.00 0.00 55 1014.1
20260905164007 94 3 4.3 7.8 0.00 0.00 0.00 55 1014.2
20260905163504 94 319 4.3 8.7 0.00 0.00 0.00 54 1014.2
20260905163007 94 350 4.3 8.7 0.00 0.00 0.00 55 1014.2
20260905162503 94 285 4.3 7.8 0.00 0.00 0.00 56 1014.2
20260905162006 93 292 4.3 7.8 0.00 0.00 0.00 56 1014.2
20260905161503 93 315 4.3 8.7 0.00 0.00 0.00 58 1014.2
20260905161007 93 320 5.2 8.7 0.00 0.00 0.00 57 1014.3
20260905160504 92 281 5.2 8.7 0.00 0.00 0.00 58 1014.3
20260905160004 92 283 5.2 11.3 0.00 0.00 0.00 62 1014.3
20260905155504 92 301 5.2 11.3 0.00 0.00 0.00 60 1014.4
20260905154503 91 325 4.3 7.8 0.00 0.00 0.00 62 1014.4
20260905154007 90 303 4.3 7.8 0.00 0.00 0.00 61 1014.3
20260905153504 90 310 4.3 7.8 0.00 0.00 0.00 63 1014.3
20260905153006 90 293 5.2 7.0 0.00 0.00 0.00 62 1014.3
20260905152007 89 308 4.3 8.7 0.00 0.00 0.00 65 1014.3
20260905151503 88 302 3.5 7.8 0.00 0.00 0.00 67 1014.3
20260905151007 87 311 1.7 7.0 0.00 0.00 0.00 69 1014.4
20260905150004 87 333 2.6 6.1 0.00 0.00 0.00 68 1014.4
20260905145006 87 299 4.3 7.0 0.00 0.00 0.00 68 1014.3
20260905144504 87 241 4.3 7.8 0.00 0.00 0.00 66 1014.3
20260905144006 87 277 4.3 7.8 0.00 0.00 0.00 68 1014.3
20260905143504 87 300 4.3 7.8 0.00 0.00 0.00 68 1014.3
20260905143007 87 300 5.2 8.7 0.00 0.00 0.00 67 1014.3
20260905142503 87 315 5.2 8.7 0.00 0.00 0.00 67 1014.3
20260905142006 87 297 4.3 8.7 0.00 0.00 0.00 71 1014.3
20260905141504 86 314 4.3 7.0 0.00 0.00 0.00 71 1014.3
20260905141006 85 311 4.3 7.0 0.00 0.00 0.00 71 1014.3
20260905140504 85 312 3.5 7.0 0.00 0.00 0.00 73 1014.3
20260905140004 84 329 2.6 6.1 0.00 0.00 0.00 74 1014.3
20260905135503 84 307 2.6 5.2 0.00 0.00 0.00 76 1014.2
20260905135006 83 263 1.7 5.2 0.00 0.00 0.00 75 1014.2
20260905134503 83 291 1.7 5.2 0.00 0.00 0.00 78 1014.2
20260905134006 82 270 1.7 5.2 0.00 0.00 0.00 79 1014.1
20260905133504 81 270 1.7 5.2 0.00 0.00 0.00 81 1014.1
20260905133006 81 260 1.7 5.2 0.00 0.00 0.00 81 1014.1
20260905132503 80 244 1.7 4.3 0.00 0.00 0.00 84 1014.0
20260905132007 80 268 1.7 4.3 0.00 0.00 0.00 84 1014.0
20260905131504 79 218 1.7 4.3 0.00 0.00 0.00 86 1014.0
20260905131007 79 177 1.7 4.3 0.00 0.00 0.00 87 1014.0
20260905130004 77 302 0.0 2.6 0.00 0.00 0.00 88 1014.0
20260905125504 77 303 0.0 2.6 0.00 0.00 0.00 89 1013.9
20260905125006 77 172 0.9 1.7 0.00 0.00 0.00 90 1013.9
20260905124503 76 172 0.9 1.7 0.00 0.00 0.00 90 1013.9
20260905124007 76 172 0.9 1.7 0.00 0.00 0.00 90 1013.7
20260905123504 76 169 0.9 2.6 0.00 0.00 0.00 90 1013.7
20260905123006 76 207 0.0 2.6 0.00 0.00 0.00 90 1013.7
20260905122007 75 358 0.0 1.7 0.00 0.00 0.00 90 1013.7
20260905121504 75 358 0.0 1.7 0.00 0.00 0.00 90 1013.7
20260905121006 75 358 0.0 1.7 0.00 0.00 0.00 90 1013.5
20260905120504 75 194 0.0 1.7 0.00 0.00 0.00 90 1013.5
20260905120003 75 201 0.0 0.0 0.00 0.00 0.00 90 1013.5
20260905115504 76 201 0.0 0.0 0.00 0.00 0.00 90 1013.3
20260905115007 76 201 0.0 0.0 0.00 0.00 0.00 90 1013.3
20260905114504 76 201 0.0 1.7 0.00 0.00 0.00 90 1013.3
20260905114007 76 201 0.0 1.7 0.00 0.00 0.00 90 1013.3
20260905113504 76 201 0.0 1.7 0.00 0.00 0.00 90 1013.3
20260905113007 76 202 0.0 1.7 0.00 0.00 0.00 90 1013.3
20260905112504 76 203 0.0 2.6 0.00 0.00 0.00 90 1013.2
20260905112007 76 203 0.9 2.6 0.00 0.00 0.00 90 1013.2
20260905111006 76 206 0.0 2.6 0.00 0.00 0.00 90 1013.1
20260905110503 76 207 0.0 1.7 0.00 0.00 0.00 90 1013.1
20260905105504 76 207 0.9 1.7 0.00 0.00 0.00 90 1013.2
20260905104504 76 207 0.9 1.7 0.00 0.00 0.00 89 1013.2
20260905104007 76 206 0.9 2.6 0.00 0.00 0.00 89 1013.2
20260905103503 76 205 0.9 2.6 0.00 0.00 0.00 89 1013.2
20260905103007 77 204 0.9 1.7 0.00 0.00 0.00 89 1013.2
20260905102504 77 201 0.9 1.7 0.00 0.00 0.00 89 1013.2
20260905102007 77 200 0.0 1.7 0.00 0.00 0.00 89 1013.2
20260905101007 77 199 0.0 1.7 0.00 0.00 0.00 89 1013.4
20260905100503 77 198 0.0 1.7 0.00 0.00 0.00 89 1013.4
20260905100004 77 199 0.0 1.7 0.00 0.00 0.00 88 1013.4
20260905095504 76 199 0.0 1.7 0.00 0.00 0.00 89 1013.2
20260905095007 76 199 0.0 1.7 0.00 0.00 0.00 89 1013.2
20260905094504 76 199 0.0 1.7 0.00 0.00 0.00 89 1013.2
20260905094007 76 199 0.0 1.7 0.00 0.00 0.00 89 1013.1
20260905092503 76 199 1.7 4.3 0.00 0.00 0.00 89 1013.1
20260905092007 76 196 1.7 4.3 0.00 0.00 0.00 90 1013.1
20260905091504 76 193 1.7 4.3 0.00 0.00 0.00 90 1013.1
20260905091007 76 188 1.7 2.6 0.00 0.00 0.00 89 1013.1
20260905090504 76 235 1.7 2.6 0.00 0.00 0.00 89 1013.1
20260905090004 76 236 0.9 2.6 0.00 0.00 0.00 89 1013.1
20260905085504 77 236 0.9 1.7 0.00 0.00 0.00 89 1013.1
20260905085012 77 236 0.0 1.7 0.00 0.00 0.00 88 1013.1
20260905084504 77 237 0.0 1.7 0.00 0.00 0.00 88 1013.1
20260905084007 77 236 0.0 1.7 0.00 0.00 0.00 88 1013.2
20260905083503 77 237 0.0 1.7 0.00 0.00 0.00 88 1013.2
20260905082504 78 237 0.9 1.7 0.00 0.00 0.00 87 1013.3
20260905082007 78 237 0.9 1.7 0.00 0.00 0.00 87 1013.3
20260905081503 78 238 0.9 1.7 0.00 0.00 0.00 87 1013.3
20260905080504 78 239 0.9 1.7 0.00 0.00 0.00 87 1013.5
20260905080004 78 242 0.0 1.7 0.00 0.00 0.00 87 1013.5
20260905075504 78 243 0.0 1.7 0.00 0.00 0.00 86 1013.4
20260905075007 78 244 1.7 1.7 0.00 0.00 0.00 87 1013.4
20260905074504 78 244 1.7 1.7 0.00 0.00 0.00 87 1013.4
20260905074007 78 241 0.0 1.7 0.00 0.00 0.00 87 1013.5
20260905073504 77 237 0.0 1.7 0.00 0.00 0.00 87 1013.5
20260905073006 78 236 0.9 1.7 0.00 0.00 0.00 87 1013.5
20260905072007 78 236 0.9 1.7 0.00 0.00 0.00 88 1013.4
20260905070503 78 184 0.0 0.9 0.00 0.00 0.00 88 1013.6
20260905070004 78 184 0.0 1.7 0.00 0.00 0.00 88 1013.6
20260905065504 78 184 0.0 1.7 0.00 0.00 0.00 88 1013.6
20260905065007 78 184 0.0 1.7 0.00 0.00 0.00 88 1013.6
20260905064006 78 184 0.0 1.7 0.00 0.00 0.00 87 1013.6
20260905063503 78 184 0.0 1.7 0.00 0.00 0.00 87 1013.6
20260905063008 78 184 0.9 1.7 0.00 0.00 0.00 87 1013.6
20260905062504 78 184 0.9 2.6 0.00 0.00 0.00 87 1013.7
20260905062007 78 183 0.0 2.6 0.00 0.00 0.00 86 1013.7
20260905061504 78 192 0.0 1.7 0.00 0.00 0.00 86 1013.7
20260905061007 78 190 0.0 1.7 0.00 0.00 0.00 86 1013.9
20260905060504 78 190 0.0 1.7 0.00 0.00 0.00 86 1013.9
20260905055503 78 190 0.0 0.0 0.00 0.00 0.00 85 1013.8
20260905055007 78 190 0.0 0.9 0.00 0.00 0.00 85 1013.8
20260905054503 78 190 0.0 0.9 0.00 0.00 0.00 85 1013.8
20260905054006 78 190 0.0 1.7 0.00 0.00 0.00 86 1013.9
20260905053504 78 190 0.0 1.7 0.00 0.00 0.00 86 1013.9
20260905053007 78 190 1.7 1.7 0.00 0.00 0.00 86 1013.9
20260905052503 78 190 1.7 2.6 0.00 0.00 0.00 85 1013.8
20260905052006 78 190 1.7 2.6 0.00 0.00 0.00 85 1013.8
20260905051504 78 189 1.7 2.6 0.00 0.00 0.00 85 1013.8
20260905051007 78 186 1.7 4.3 0.00 0.00 0.00 84 1013.7
20260905050504 78 184 1.7 4.3 0.00 0.00 0.00 85 1013.7
20260905045503 78 200 0.9 2.6 0.00 0.00 0.00 85 1013.7
20260905044504 79 200 0.9 2.6 0.00 0.00 0.00 85 1013.7
20260905044007 79 200 0.9 2.6 0.00 0.00 0.00 85 1013.6
20260905043504 79 200 0.9 1.7 0.00 0.00 0.00 86 1013.6
20260905043006 79 212 0.9 1.7 0.00 0.00 0.00 85 1013.6
20260905042503 79 212 0.9 1.7 0.00 0.00 0.00 84 1013.5
20260905041504 79 212 0.9 4.3 0.00 0.00 0.00 84 1013.5
20260905041007 79 237 1.7 1.7 0.00 0.00 0.00 84 1013.6
20260905040503 79 238 1.7 2.6 0.00 0.00 0.00 83 1013.6
20260905040003 79 238 0.9 2.6 0.00 0.00 0.00 84 1013.6
20260905035503 80 238 0.9 1.7 0.00 0.00 0.00 84 1013.6
20260905035006 80 238 0.9 1.7 0.00 0.00 0.00 84 1013.6
20260905033504 80 238 0.0 1.7 0.00 0.00 0.00 83 1013.8
20260905033007 80 238 0.0 1.7 0.00 0.00 0.00 82 1013.8
20260905032504 80 238 0.0 1.7 0.00 0.00 0.00 82 1013.8
20260905032007 80 238 0.0 1.7 0.00 0.00 0.00 82 1013.8
20260905031504 80 238 0.0 1.7 0.00 0.00 0.00 82 1013.8
20260905031007 81 238 0.0 1.7 0.00 0.00 0.00 82 1013.7
20260905030503 81 117 0.0 0.9 0.00 0.00 0.00 82 1013.7
20260905030004 81 117 0.0 0.9 0.00 0.00 0.00 82 1013.7
20260905025504 81 117 0.0 0.0 0.00 0.00 0.00 81 1013.7
20260905025006 81 117 0.0 0.0 0.00 0.00 0.00 80 1013.7
20260905024504 82 117 0.0 0.0 0.00 0.00 0.00 80 1013.7
20260905024006 82 117 0.0 0.0 0.00 0.00 0.00 80 1013.6
20260905023504 82 117 0.0 0.0 0.00 0.00 0.00 80 1013.6
20260905023007 82 117 0.0 0.0 0.00 0.00 0.00 79 1013.6